FW8061 Weather Reports


time (UTC)temp
C
wind
direction
speed
KPH
gust
KPH
rain 1hr
cm
rain 24hr
cm
rain mn
cm
humidity
%
barometer
mb
20260504050018 7 191 3.2 8.0 0.00 0.00 0.00 58 1006.4
20260504045018 8 207 3.2 6.4 0.00 0.00 0.00 57 1006.5
20260504044019 7 200 1.6 4.8 0.00 0.00 0.00 56 1006.5
20260504043725 8 0.0 0.0 0.00 0.00 0.00 55 1006.7
20260504040019 8 206 4.8 9.7 0.00 0.00 0.00 52 1006.6
20260504035016 8 204 4.8 8.0 0.00 0.00 0.00 52 1006.7
20260504034020 8 203 3.2 8.0 0.00 0.00 0.00 51 1006.7
20260504033021 8 201 3.2 9.7 0.00 0.00 0.00 51 1006.7
20260504032037 8 207 4.8 12.9 0.00 0.00 0.00 50 1006.8
20260504031038 9 212 3.2 8.0 0.00 0.00 0.00 50 1006.8
20260504030018 9 215 3.2 8.0 0.00 0.00 0.00 50 1006.9
20260504025100 9 206 4.8 6.4 0.00 0.00 0.00 50 1007.0
20260504024018 10 218 3.2 9.7 0.00 0.00 0.00 50 1007.0
20260504023039 10 225 4.8 12.9 0.00 0.00 0.00 49 1007.1
20260504022019 10 220 3.2 8.0 0.00 0.00 0.00 49 1007.2
20260504021018 10 212 3.2 9.7 0.00 0.00 0.00 50 1007.2
20260504020018 10 217 3.2 8.0 0.00 0.00 0.00 49 1007.3
20260504015018 10 217 3.2 4.8 0.00 0.00 0.00 48 1007.4
20260504014020 10 214 3.2 8.0 0.00 0.00 0.00 47 1007.4
20260504013019 10 212 3.2 9.7 0.00 0.00 0.00 45 1007.4
20260504012019 10 223 3.2 8.0 0.00 0.00 0.00 45 1007.4
20260504011019 10 235 4.8 16.1 0.00 0.00 0.00 45 1007.4
20260504010036 11 207 3.2 8.0 0.00 0.00 0.00 44 1007.3
20260504005020 11 224 4.8 11.3 0.00 0.00 0.00 43 1007.2
20260504004020 11 212 3.2 9.7 0.00 0.00 0.00 42 1007.2
20260504003038 11 215 4.8 9.7 0.00 0.00 0.00 41 1007.1
20260504002020 11 205 4.8 11.3 0.00 0.00 0.00 41 1007.1
20260504001017 11 240 1.6 4.8 0.00 0.00 0.00 38 1007.0
20260504000017 11 244 3.2 8.0 0.00 0.00 0.00 38 1006.9
20260503235020 11 277 3.2 9.7 0.00 0.00 0.00 36 1006.9
20260503234038 11 267 3.2 9.7 0.00 0.00 0.00 36 1006.8
20260503233018 12 286 6.4 12.9 0.00 0.00 0.00 35 1006.8
20260503232023 12 300 3.2 9.7 0.00 0.00 0.00 35 1006.8
20260503231039 12 299 6.4 14.5 0.00 0.00 0.00 35 1006.8
20260503230038 12 245 1.6 6.4 0.00 0.00 0.00 35 1006.7
20260503225019 12 308 4.8 9.7 0.00 0.00 0.00 34 1006.8
20260503224018 12 313 6.4 12.9 0.00 0.00 0.00 34 1006.8
20260503223019 12 310 8.0 14.5 0.00 0.00 0.00 34 1006.8
20260503222019 12 298 6.4 12.9 0.00 0.00 0.00 35 1006.9
20260503221019 12 307 4.8 12.9 0.00 0.00 0.00 36 1006.8
20260503220020 12 314 6.4 14.5 0.00 0.00 0.00 36 1006.8
20260503215039 12 277 6.4 11.3 0.00 0.00 0.00 36 1006.8
20260503214017 12 292 4.8 12.9 0.00 0.00 0.00 37 1006.9
20260503213021 12 288 6.4 14.5 0.00 0.00 0.00 37 1007.0
20260503212041 12 300 4.8 16.1 0.00 0.00 0.00 37 1007.0
20260503211017 12 307 6.4 14.5 0.00 0.00 0.00 37 1006.9
20260503210021 12 313 8.0 14.5 0.00 0.00 0.00 37 1006.9
20260503205018 12 272 6.4 14.5 0.00 0.00 0.00 37 1007.0
20260503204021 12 279 6.4 14.5 0.00 0.00 0.00 37 1007.0
20260503203019 11 295 4.8 11.3 0.00 0.00 0.00 40 1007.1
20260503202019 11 302 6.4 19.3 0.00 0.00 0.00 38 1007.2
20260503201021 11 286 4.8 14.5 0.00 0.00 0.00 40 1007.3
20260503200022 11 314 8.0 20.9 0.00 0.00 0.00 39 1007.4
20260503195018 11 305 6.4 16.1 0.00 0.00 0.00 39 1007.4
20260503194018 11 299 3.2 14.5 0.00 0.00 0.00 39 1007.5
20260503193018 11 288 6.4 14.5 0.00 0.00 0.00 40 1007.7
20260503192020 11 294 6.4 11.3 0.00 0.00 0.00 41 1007.9
20260503191021 10 333 9.7 16.1 0.00 0.00 0.00 41 1008.1
20260503190019 10 327 8.0 16.1 0.00 0.00 0.00 42 1008.1
20260503185019 10 331 8.0 16.1 0.00 0.00 0.00 43 1008.2
20260503184020 11 317 8.0 14.5 0.00 0.00 0.00 43 1008.3
20260503183020 11 248 4.8 14.5 0.00 0.00 0.00 44 1008.5
20260503182041 10 326 8.0 16.1 0.00 0.00 0.00 45 1008.7
20260503181017 9 322 6.4 14.5 0.00 0.00 0.00 48 1008.8
20260503180021 9 323 6.4 11.3 0.00 0.00 0.00 49 1008.9
20260503175017 9 282 6.4 11.3 0.00 0.00 0.00 48 1008.9
20260503174020 10 305 4.8 14.5 0.00 0.00 0.00 49 1008.9
20260503173018 10 305 6.4 16.1 0.00 0.00 0.00 48 1009.0
20260503172018 10 286 6.4 17.7 0.00 0.00 0.00 47 1009.2
20260503171019 9 281 4.8 14.5 0.00 0.00 0.00 50 1009.3
20260503131039 6 20 1.6 4.8 0.00 0.00 0.00 64 1011.8
20260503081031 4 337 3.2 3.2 0.00 0.00 0.00 86 1011.4